User: anonymous   Login
Location: Unspecified
(0.0000°N, 0.0000°E)
Time: 07:12:43
(UTC+00:00)
Language:

FORTE - Orbit

View from above orbital plane
View from above orbital plane
View from above satellite
View from above satellite

Ground track
Ground track

The orbit data is extracted from the following two-line orbital elements,

1 24920U 97047A   18347.71022595  .00000000  00000-0  23984-4 0  9998
2 24920  69.9550  77.1423 0020364  44.7669 315.5091 14.26316129107757
Epoch (UTC): 13 December 2018 17:02:43
Eccentricity: 0.0020364
inclination: 69.9550°
perigee height: 789 km
apogee height: 819 km
right ascension of ascending node: 77.1423°
argument of perigee: 44.7669°
revolutions per day: 14.26316129
mean anomaly at epoch: 315.5091°
orbit number at epoch: 10775

The dashed part of the orbit path shows where the satellite is in the earth's shadow,  

DLR